Regional Weather Roundup
Issued by NWS

Home | Current Version | Previous Version | Text Only | Print | Product List | Glossary On
Versions: 1 2 3 4 5 6 7 8 9 10 11 12 13 14 15 16 17 18 19 20 21 22 23 24 25 26 27 28 29 30 31 32 33 34 35 36 37 38 39 40 41 42 43 44 45 46 47 48 49 50
000
ASUS43 KMPX 221201
RWRMN
WEATHER ROUNDUP FOR MINNESOTA
NATIONAL WEATHER SERVICE TWIN CITIES/CHANHASSEN MN
600 AM CST SUN JAN 22 2017


NOTE: "FAIR" INDICATES FEW OR NO CLOUDS BELOW 12,000 FEET WITH NO
SIGNIFICANT WEATHER AND/OR OBSTRUCTIONS TO VISIBILITY. N/A MEANS
CURRENT SKY AND/OR WEATHER CONDITIONS ARE NOT AVAILABLE.

MNZ060>063-068>070-221300-
   Twin Cities Metro

CITY           SKY/WX    TMP DP  RH WIND       PRES   REMARKS
TWIN CITIES    CLOUDY    35  33  92 NW8       29.63R WCI  29
6HR MIN TEMP:  35; 6HR MAX TEMP:  36; 6HR PCP: TRACE;

ST PAUL        CLOUDY    35  35 100 NW7       29.63R WCI  29
CRYSTAL        CLOUDY    34  32  92 NW6       29.62R FOG     WCI  29
BLAINE         CLOUDY    36  36 100 NW3       29.63R FOG
LAKEVILLE      FOG       34  34 100 NW3       29.61R VSB 1/2
EDEN PRAIRIE   CLOUDY    35  33  92 N8        29.60S FOG     WCI  29
6HR MIN TEMP:  35; 6HR MAX TEMP:  36;

SOUTH ST PAUL  CLOUDY    35  35  99 NW6       29.62R WCI  30
LAKE ELMO      FOG       34  34 100 CALM      29.62S VSB 1/2
$$
MNZ001>005-007-008-013>017-022>024-027-028-221300-
   Northwest Minnesota

CITY           SKY/WX    TMP DP  RH WIND       PRES   REMARKS
BEMIDJI        FOG       32  32 100 CALM      29.63R VSB 1/2
HALLOCK        DRZL/FOG  34  34 100 CALM      29.65S VSB 1
ROSEAU         HAZE      34  28  80 CALM      29.65S VSB 1
WARROAD        FOG       34  28  80 CALM      29.65F VSB 3/4
THIEF RVR FALL FOG       33  32  96 CALM      29.66R VSB 1/4
CROOKSTON      FOG       34  34 100 CALM      29.67R VSB 1/2
FOSSTON        FOG       30  30 100 CALM      29.65R VSB 1/2
DETROIT LAKES  FOG       34  34 100 W3        29.66R VSB 1/2
MOORHEAD       FOG       34  32  93 W5        29.67R VSB 1/4 WCI  30
PARK RAPIDS    FOG       34  31  88 CALM      29.63R VSB 1/2
MAHNOMEN       FOG       33  32  99 CALM      29.64R VSB 1/2
$$
MNZ006-009>011-018-025>026-221300-
   North Central Minnesota

CITY           SKY/WX    TMP DP  RH WIND       PRES   REMARKS
BAUDETTE       CLOUDY    33  33 100 N3        29.64S FOG
FLAG ISLAND    FOG       32  32 100 CALM      29.65S VSB 1
INTL FALLS     FOG       34  32  92 N3        29.64R VSB 1/2
6HR MIN TEMP:  34; 6HR MAX TEMP:  34;

WASKISH        CLOUDY    34  34 100 CALM      29.64S FOG
BIG FORK       FOG       34  34 100 CALM      29.63R VSB 1/2
LONGVILLE      FOG       34  34 100 CALM      29.62S VSB 3/4
GRAND RAPIDS   CLOUDY    34  33  96 N6        29.64R FOG     WCI  29
CRANE LAKE     LGT RAIN  32  32 100 CALM      29.65S
ORR            LGT RAIN  32  30  93 CALM      29.60S
COOK           DRIZZLE   34  34 100 CALM      29.62R
WALKER         FOG       33  32  99 CALM      29.63R VSB 1/2
$$
MNZ012-019>021-037-221300-
   Northeast Minnesota

CITY           SKY/WX    TMP DP  RH WIND       PRES   REMARKS
DULUTH         DRIZZLE   34  34 100 N6        29.59S FOG     WCI  29
6HR MIN TEMP:  34; 6HR MAX TEMP:  35; 6HR PCP: TRACE;

ELY            CLOUDY    32  32 100 CALM      29.60S FOG
HIBBING        CLOUDY    32  32 100 CALM      29.61R
EVELETH        CLOUDY    34  33  98 CALM      29.62R
DULUTH HARBOR  CLOUDY    36  34  93 CALM      29.62F
TWO HARBORS    CLOUDY    37  34  87 CALM      29.59R
SILVER BAY     CLOUDY    36  36 100 CALM      29.59R FOG
GRAND MARAIS     N/A     38  33  82 N5        29.60S
G MARAIS ARPRT CLOUDY    30  28  93 N6        29.58R WCI  24
$$
MNZ029>031-032-039>041-046>048-054>057-064-221300-
   West Central Minnesota

CITY           SKY/WX    TMP DP  RH WIND       PRES   REMARKS
FERGUS FALLS   FOG       34  34 100 NW5       29.70R VSB 1/4 WCI  30
WHEATON        CLOUDY    39  39 100 W6        29.69R FOG
MORRIS         FOG       34  34 100 NW8       29.64S VSB 1/2 WCI  27
ALEXANDRIA     CLOUDY    34  34 100 N3        29.64R FOG
ELBOW LAKE     FOG       32  32 100 W6        29.65S VSB 3/4 WCI  26
WADENA         FOG       32  32 100 CALM      29.64R VSB 3/4
GLENWOOD       FOG       34  34 100 CALM      29.64R VSB 1
APPLETON       CLOUDY    36  34  93 NW6       29.66R FOG
ORTONVILLE     CLOUDY    34  32  93 CALM      29.67R FOG
MADISON        CLOUDY    36  36 100 NW5       29.66R FOG
WILLMAR        CLOUDY    34  34 100 CALM      29.65R FOG
$$
MNZ033>034-036-042>043-049>051-058-059-221300-
   Central Minnesota

CITY           SKY/WX    TMP DP  RH WIND       PRES   REMARKS
ST CLOUD       CLOUDY    34  34 100 N5        29.63R FOG     WCI  30
6HR MIN TEMP:  33; 6HR MAX TEMP:  34;

SAUK CENTRE    FOG       33  33 100 NW6       29.63S VSB 1   WCI  27
PAYNESVILLE    FOG       33  33 100 CALM      29.65R VSB 1/2
AITKIN         CLOUDY    36  34  93 CALM      29.61R FOG
PINE RIVER     FOG       34  34 100 CALM      29.67R VSB 1/2
BRAINERD       CLOUDY    33  33 100 N5        29.63R FOG     WCI  29
STAPLES        CLOUDY    32  32 100 CALM      29.64R FOG
LONG PRAIRIE   SNOW      32  32 100 W3        29.63S VSB 1/2
LITTLE FALLS   CLOUDY    32  32 100 NW3       29.63S FOG
LITCHFIELD     FOG       36  36 100 NW6       29.64R VSB 1
BUFFALO        FOG       34  33  97 NW3       29.64S VSB 1
MAPLE LAKE     CLOUDY    35  35 100 CALM      29.65R FOG
HUTCHINSON     CLOUDY    35  35 100 N9        29.63S FOG     WCI  27
$$
MNZ037-044-045-052-053-221300-
   East Central Minnesota

CITY           SKY/WX    TMP DP  RH WIND       PRES   REMARKS
PRINCETON      CLOUDY    36  34  93 CALM      29.63R
MORA           CLOUDY    34  32  93 CALM      29.63S
CAMBRIDGE      CLOUDY    36  36 100 CALM      29.61R FOG
RUSH CITY      CLOUDY    34  34 100 VRB5      29.62R FOG     WCI  30
MOOSE LAKE     CLOUDY    34  32  93 NE3       29.59S
HINCKLEY       CLOUDY    34  34 100 NW3       29.62R FOG
CLOQUET        CLOUDY    34  34 100 NW3       29.60S FOG
MCGREGOR       CLOUDY    34  34 100 CALM      29.62R VSB 3/4
$$
MNZ071>073-080-081-089-090-097-098-221300-
   Southwest Minnesota

CITY           SKY/WX    TMP DP  RH WIND       PRES   REMARKS
MONTEVIDEO     CLOUDY    34  34 100 N6        29.67R FOG     WCI  29
GRANITE FALLS  FOG       34  34 100 NW8       29.67R VSB 3/4 WCI  28
CANBY          CLOUDY    34  34  98 CALM      29.68R FOG
MARSHALL       CLOUDY    33  33 100 NW8       29.66R FOG     WCI  26
REDWOOD FALLS  FOG       34  33  96 NW6       29.64R VSB 1/2 WCI  29
OLIVIA         FOG       34  34 100 NW5       29.64R VSB 1/2 WCI  30
PIPESTONE      CLOUDY    34  34 100 N12       29.64R FOG     WCI  25
WINDOM         FOG       34  34 100 NW8       29.63R VSB 3/4 WCI  27
WORTHINGTON    CLOUDY    33  32  96 NW10      29.64R FOG     WCI  25
JACKSON        FOG       32  32 100 N7        29.63R VSB 3/4 WCI  26
TRACY          FOG       34  34 100 NW8       29.65R VSB 1/2 WCI  27
SLAYTON        CLOUDY    32  32 100 NW8       29.63S FOG     WCI  25
$$
MNZ065>067-074>077-082>085-091>093-221300-
   South Central Minnesota

CITY           SKY/WX    TMP DP  RH WIND       PRES   REMARKS
MANKATO        FOG       34  33  96 NW8       29.62S VSB 1/2 WCI  27
NEW ULM        CLOUDY    34  34 100 NW5       29.63R FOG     WCI  30
ST JAMES       FOG       34  34 100 NW9       29.64R VSB 1   WCI  26
FAIRMONT       FOG       34  33  96 NW8       29.63R VSB 1/2 WCI  27
GLENCOE        CLOUDY    35  35 100 N5        29.62R FOG     WCI  31
OWATONNA       FOG       34  32  93 CALM      29.61R VSB 1/2
WASECA         FOG       32  32 100 N6        29.62R VSB 1/2 WCI  26
ALBERT LEA     FOG       34  34 100 CALM      29.60R VSB 1/4
$$
MNZ078>079-086>088-094>096-221300-
   Southeast Minnesota

CITY           SKY/WX    TMP DP  RH WIND       PRES   REMARKS
ROCHESTER      FOG       32  32 100 W5        29.59R VSB 1/4 WCI  27
6HR MIN TEMP:  32; 6HR MAX TEMP:  34;

RED WING       FOG       36  34  93 W3        29.60S VSB 1/4
STANTON        CLOUDY    35  34  95 CALM      29.60R FOG
DODGE CENTER   FOG       32  32 100 CALM      29.60R VSB<1/4
WINONA         CLOUDY    34  34 100 CALM      29.61R FOG
AUSTIN         FOG       34  32  93 CALM      29.60R VSB 3/4
PRESTON        CLOUDY    32  32  99 W5        29.60R FOG     WCI  27
$$
ABBREVIATIONS USED IN REMARKS
   TC - TEMPERATURES IN CELSIUS
  WCI - WIND CHILL INDEX
   HX - HEAT INDEX
  VSB - VISIBILITY
$$




USA.gov is the U.S. government's official web portal to all federal, state and local government web resources and services.